星链-34300 (STARLINK-34300)

导读 | 豆包AI

STARLINK-34300是美国太空探索技术公司(SpaceX)于2025年6月5日发射的星链(Starlink)系列卫星。星链项目旨在构建全球低轨卫星互联网星座,为全球尤其是基础设施匮乏地区提供高速、低延迟的宽带互联网服务。作为星链星座的组成部分,该卫星运行于近地轨道,助力SpaceX持续扩张全球卫星互联网覆盖网络,推动全球互联基础设施建设。

Basic Information
目录编号:
64218
目录名称:
STARLINK-34300
国际标识:
2025-117R
轨道中心:
EARTH
卫星名称:
星链-34300
卫星全名:
星链-34300 (STARLINK-34300)
卫星状态:
在轨 (已飞行333 天)
发射日期:
2025-05-31 UTC
国别 :
美国 (US)
星等 :
--
Orbit Information
数据来源 国际轨道数据 AOE轨道数据
星历时间 2026-04-28T16:37:29+0800
1天前
查看轨道信息
2026-04-28T09:00:00+0800
1天前
查看轨道信息
半长轴 6853.371km 6853.402km
偏心率 0.0001258 0.0000985
轨道倾角 53.158° 53.158°
近地点辐角 67.103° 73.712°
升交点赤经 168.661° 170.138°
平近点角 293.011° 335.313°
近地点 474.371km 474.589km
远地点 476.097km 475.941km
周期 94.106分钟 94.106分钟
每日圈数 15.301939 15.301835
Detailed Information
固有亮度:
5
最大亮度:
2.5
卫星平台:
Starlink V1.0
覆盖范围:
全球
运营商:
太空探索技术公司
运营商所在国:
美国
制造商(研发单位):
太空探索技术公司
制造商所在国:
美国
使用方式:
暂无
Satellite Introduction
Starlink 计划是 SpaceX 推出的全球卫星互联网项目,通过发射低轨道卫星,为全球尤其是偏远地区提供高速、低延迟的互联网服务。自 2019 年起,Starlink 已部署数千颗卫星,旨在缩小全球数字鸿沟,推动互联网普及。该项目还为军事、航空等行业提供通信支持,带来广泛经济效益。
2D Orbit Map
3D Orbit Map
Orbit Altitude Analysis Chart
Orbit Inclination Analysis Chart
Orbit Comprehensive Analysis Chart
View Comprehensive Chart